| time (UTC) | temp F | wind direction | speed knots | gust knots | rain 1hr in | rain 24hr in | rain mn in | humidity % | barometer mb |
| 20260506033539 | 57 | 0 | 0.0 | 0.0 | 0.00 | 0.00 | 0.00 | 76 | 1008.1 |
| 20260506033048 | 57 | 0 | 0.0 | 0.9 | 0.00 | 0.00 | 0.00 | 76 | 1008.1 |
| 20260506032541 | 57 | 0 | 0.0 | 0.9 | 0.00 | 0.00 | 0.00 | 76 | 1008.1 |
| 20260506032041 | 58 | 153 | 0.0 | 0.9 | 0.00 | 0.00 | 0.00 | 75 | 1008.0 |
| 20260506031554 | 58 | 0 | 0.0 | 0.9 | 0.00 | 0.00 | 0.00 | 75 | 1008.0 |
| 20260506031040 | 58 | 153 | 0.0 | 0.9 | 0.00 | 0.00 | 0.00 | 75 | 1007.9 |
| 20260506030539 | 58 | 176 | 0.9 | 0.9 | 0.00 | 0.00 | 0.00 | 75 | 1008.0 |
| 20260506030052 | 58 | 162 | 0.0 | 0.9 | 0.00 | 0.00 | 0.00 | 74 | 1007.9 |
| 20260506025540 | 58 | 155 | 0.0 | 0.9 | 0.00 | 0.00 | 0.00 | 74 | 1008.0 |
| 20260506025042 | 59 | 0 | 0.0 | 0.0 | 0.00 | 0.00 | 0.00 | 73 | 1008.1 |
| 20260506024552 | 59 | 0 | 0.0 | 0.0 | 0.00 | 0.00 | 0.00 | 72 | 1008.1 |
| 20260506024036 | 60 | 0 | 0.0 | 0.0 | 0.00 | 0.00 | 0.00 | 72 | 1008.1 |
| 20260506023540 | 60 | 153 | 0.0 | 0.0 | 0.00 | 0.00 | 0.00 | 71 | 1008.1 |
| 20260506023106 | 60 | 0 | 0.0 | 0.9 | 0.00 | 0.00 | 0.00 | 71 | 1008.2 |
| 20260506022540 | 61 | 0 | 0.0 | 0.9 | 0.00 | 0.00 | 0.00 | 70 | 1008.3 |
| 20260506022040 | 61 | 153 | 0.0 | 0.9 | 0.00 | 0.00 | 0.00 | 70 | 1008.3 |
| 20260506021610 | 61 | 174 | 0.0 | 0.9 | 0.00 | 0.00 | 0.00 | 69 | 1008.5 |
| 20260506021044 | 61 | 176 | 0.9 | 0.9 | 0.00 | 0.00 | 0.00 | 69 | 1008.3 |
| 20260506020539 | 62 | 192 | 0.0 | 0.9 | 0.00 | 0.00 | 0.00 | 69 | 1008.4 |
| 20260506020045 | 62 | 169 | 0.0 | 0.9 | 0.00 | 0.00 | 0.00 | 69 | 1008.3 |
| 20260506015541 | 62 | 0 | 0.0 | 0.9 | 0.00 | 0.00 | 0.00 | 68 | 1008.3 |
| 20260506015044 | 62 | 0 | 0.0 | 0.9 | 0.00 | 0.00 | 0.00 | 68 | 1008.3 |
| 20260506014551 | 63 | 0 | 0.0 | 0.9 | 0.00 | 0.00 | 0.00 | 68 | 1008.4 |
| 20260506014040 | 63 | 202 | 0.0 | 0.0 | 0.00 | 0.00 | 0.00 | 67 | 1008.4 |
| 20260506013541 | 63 | 0 | 0.0 | 0.9 | 0.00 | 0.00 | 0.00 | 67 | 1008.4 |
| 20260506013101 | 63 | 0 | 0.0 | 0.9 | 0.00 | 0.00 | 0.00 | 67 | 1008.3 |
| 20260506012536 | 63 | 202 | 0.0 | 0.9 | 0.00 | 0.00 | 0.00 | 67 | 1008.3 |
| 20260506012041 | 63 | 0 | 0.0 | 0.9 | 0.00 | 0.00 | 0.00 | 67 | 1008.3 |
| 20260506011612 | 63 | 207 | 0.0 | 0.9 | 0.00 | 0.00 | 0.00 | 67 | 1008.3 |
| 20260506011040 | 63 | 0 | 0.0 | 0.9 | 0.00 | 0.00 | 0.00 | 67 | 1008.3 |
| 20260506010540 | 63 | 0 | 0.0 | 0.0 | 0.00 | 0.00 | 0.00 | 66 | 1008.3 |
| 20260506010057 | 63 | 0 | 0.0 | 0.0 | 0.00 | 0.00 | 0.00 | 66 | 1008.2 |
| 20260506005543 | 64 | 0 | 0.0 | 0.0 | 0.00 | 0.00 | 0.00 | 65 | 1008.0 |
| 20260506005039 | 64 | 0 | 0.0 | 0.0 | 0.00 | 0.00 | 0.00 | 65 | 1007.9 |
| 20260506004548 | 64 | 0 | 0.0 | 1.7 | 0.00 | 0.00 | 0.00 | 65 | 1008.0 |
| 20260506004040 | 64 | 158 | 0.0 | 1.7 | 0.00 | 0.00 | 0.00 | 64 | 1008.0 |
| 20260506003540 | 65 | 174 | 0.9 | 1.7 | 0.00 | 0.00 | 0.00 | 64 | 1008.0 |
| 20260506003047 | 65 | 220 | 0.0 | 2.6 | 0.00 | 0.00 | 0.00 | 64 | 1008.1 |
| 20260506002539 | 65 | 220 | 0.0 | 2.6 | 0.00 | 0.00 | 0.00 | 64 | 1007.9 |
| 20260506002036 | 65 | 295 | 0.9 | 2.6 | 0.00 | 0.00 | 0.00 | 64 | 1007.8 |
| 20260506001553 | 65 | 159 | 0.9 | 3.5 | 0.00 | 0.00 | 0.00 | 64 | 1007.4 |
| 20260506001041 | 65 | 214 | 0.9 | 3.5 | 0.00 | 0.00 | 0.00 | 63 | 1007.3 |
| 20260506000537 | 65 | 184 | 0.9 | 1.7 | 0.00 | 0.00 | 0.00 | 63 | 1006.9 |
| 20260506000054 | 66 | 179 | 0.9 | 0.9 | 0.00 | 0.00 | 0.00 | 63 | 1006.6 |
| 20260505235539 | 66 | 175 | 0.9 | 0.9 | 0.00 | 0.00 | 0.00 | 62 | 1006.7 |
| 20260505235036 | 66 | 161 | 0.0 | 2.6 | 0.00 | 0.00 | 0.00 | 62 | 1006.5 |
| 20260505234545 | 67 | 161 | 0.9 | 2.6 | 0.00 | 0.00 | 0.00 | 61 | 1006.2 |
| 20260505234041 | 67 | 162 | 0.0 | 1.7 | 0.00 | 0.00 | 0.00 | 63 | 1006.3 |
| 20260505233540 | 68 | 130 | 0.0 | 0.9 | 0.00 | 0.00 | 0.00 | 62 | 1006.1 |
| 20260505233050 | 68 | 0 | 0.0 | 1.7 | 0.00 | 0.00 | 0.00 | 61 | 1006.5 |
| 20260505232541 | 68 | 0 | 0.0 | 2.6 | 0.00 | 0.00 | 0.00 | 61 | 1006.5 |
| 20260505232043 | 68 | 0 | 0.9 | 5.2 | 0.00 | 0.00 | 0.00 | 61 | 1006.6 |
| 20260505231606 | 68 | 349 | 0.9 | 5.2 | 0.00 | 0.00 | 0.00 | 61 | 1006.6 |
| 20260505231040 | 67 | 0 | 0.9 | 3.5 | 0.00 | 0.00 | 0.00 | 61 | 1006.7 |
| 20260505230540 | 67 | 195 | 0.9 | 2.6 | 0.00 | 0.00 | 0.00 | 60 | 1006.7 |
| 20260505230053 | 67 | 141 | 0.0 | 9.6 | 0.00 | 0.00 | 0.00 | 59 | 1006.5 |
| 20260505225542 | 67 | 195 | 1.7 | 9.6 | 0.00 | 0.00 | 0.00 | 58 | 1006.4 |
| 20260505225040 | 67 | 251 | 3.5 | 9.6 | 0.00 | 0.00 | 0.00 | 57 | 1006.9 |
| 20260505224554 | 67 | 275 | 1.7 | 7.0 | 0.00 | 0.00 | 0.00 | 57 | 1005.2 |
| 20260505224039 | 67 | 200 | 3.5 | 7.0 | 0.00 | 0.00 | 0.00 | 56 | 1004.7 |
| 20260505223539 | 68 | 163 | 4.3 | 7.8 | 0.00 | 0.00 | 0.00 | 56 | 1004.7 |
| 20260505223054 | 68 | 162 | 3.5 | 8.7 | 0.00 | 0.00 | 0.00 | 55 | 1004.7 |
| 20260505222545 | 68 | 212 | 4.3 | 8.7 | 0.00 | 0.00 | 0.00 | 55 | 1004.5 |
| 20260505222040 | 69 | 207 | 3.5 | 8.7 | 0.00 | 0.00 | 0.00 | 55 | 1004.6 |
| 20260505221550 | 69 | 185 | 3.5 | 7.8 | 0.00 | 0.00 | 0.00 | 55 | 1004.6 |
| 20260505221041 | 69 | 193 | 3.5 | 7.8 | 0.00 | 0.00 | 0.00 | 54 | 1004.6 |
| 20260505220540 | 69 | 217 | 2.6 | 7.8 | 0.00 | 0.00 | 0.00 | 55 | 1004.6 |
| 20260505220059 | 69 | 236 | 2.6 | 7.8 | 0.00 | 0.00 | 0.00 | 54 | 1004.5 |
| 20260505215541 | 69 | 215 | 3.5 | 7.8 | 0.00 | 0.00 | 0.00 | 53 | 1004.4 |
| 20260505215040 | 70 | 217 | 2.6 | 7.8 | 0.00 | 0.00 | 0.00 | 53 | 1004.4 |
| 20260505214555 | 70 | 186 | 3.5 | 7.0 | 0.00 | 0.00 | 0.00 | 52 | 1004.3 |
| 20260505214040 | 71 | 200 | 3.5 | 9.6 | 0.00 | 0.00 | 0.00 | 51 | 1004.3 |
| 20260505213536 | 72 | 250 | 3.5 | 9.6 | 0.00 | 0.00 | 0.00 | 51 | 1004.4 |
| 20260505213052 | 72 | 206 | 4.3 | 9.6 | 0.00 | 0.00 | 0.00 | 50 | 1004.3 |
| 20260505212539 | 72 | 217 | 3.5 | 9.6 | 0.00 | 0.00 | 0.00 | 49 | 1004.2 |
| 20260505212037 | 72 | 248 | 4.3 | 8.7 | 0.00 | 0.00 | 0.00 | 50 | 1003.8 |
| 20260505211550 | 72 | 252 | 3.5 | 7.8 | 0.00 | 0.00 | 0.00 | 49 | 1004.0 |
| 20260505211043 | 72 | 203 | 3.5 | 7.0 | 0.00 | 0.00 | 0.00 | 50 | 1004.1 |
| 20260505210539 | 72 | 231 | 4.3 | 7.8 | 0.00 | 0.00 | 0.00 | 51 | 1004.0 |
| 20260505210047 | 72 | 161 | 3.5 | 7.8 | 0.00 | 0.00 | 0.00 | 51 | 1003.9 |
| 20260505205541 | 73 | 214 | 2.6 | 7.0 | 0.00 | 0.00 | 0.00 | 50 | 1004.0 |
| 20260505205041 | 74 | 162 | 3.5 | 7.0 | 0.00 | 0.00 | 0.00 | 48 | 1004.1 |
| 20260505204542 | 75 | 173 | 2.6 | 7.0 | 0.00 | 0.00 | 0.00 | 48 | 1004.0 |
| 20260505204041 | 75 | 186 | 3.5 | 7.0 | 0.00 | 0.00 | 0.00 | 48 | 1003.9 |
| 20260505203543 | 75 | 213 | 4.3 | 7.0 | 0.00 | 0.00 | 0.00 | 47 | 1004.0 |
| 20260505203106 | 75 | 212 | 4.3 | 7.0 | 0.00 | 0.00 | 0.00 | 48 | 1004.0 |
| 20260505202540 | 75 | 214 | 3.5 | 7.0 | 0.00 | 0.00 | 0.00 | 48 | 1004.0 |
| 20260505202040 | 75 | 172 | 3.5 | 7.0 | 0.00 | 0.00 | 0.00 | 48 | 1004.0 |
| 20260505201554 | 75 | 229 | 3.5 | 7.8 | 0.00 | 0.00 | 0.00 | 48 | 1004.0 |
| 20260505201040 | 75 | 235 | 3.5 | 7.8 | 0.00 | 0.00 | 0.00 | 49 | 1004.0 |
| 20260505200540 | 74 | 184 | 4.3 | 7.8 | 0.00 | 0.00 | 0.00 | 48 | 1004.1 |
| 20260505200052 | 74 | 231 | 3.5 | 9.6 | 0.00 | 0.00 | 0.00 | 49 | 1004.2 |
| 20260505195542 | 74 | 205 | 3.5 | 9.6 | 0.00 | 0.00 | 0.00 | 49 | 1004.2 |
| 20260505195039 | 75 | 171 | 4.3 | 8.7 | 0.00 | 0.00 | 0.00 | 48 | 1004.3 |
| 20260505194545 | 75 | 212 | 5.2 | 8.7 | 0.00 | 0.00 | 0.00 | 48 | 1004.3 |
| 20260505194040 | 75 | 230 | 3.5 | 7.0 | 0.00 | 0.00 | 0.00 | 47 | 1004.4 |
| 20260505193536 | 76 | 165 | 3.5 | 7.8 | 0.00 | 0.00 | 0.00 | 47 | 1004.5 |
| 20260505193043 | 76 | 158 | 2.6 | 7.8 | 0.00 | 0.00 | 0.00 | 47 | 1004.3 |
| 20260505192540 | 76 | 210 | 3.5 | 9.6 | 0.00 | 0.00 | 0.00 | 46 | 1004.5 |
| 20260505192040 | 76 | 201 | 3.5 | 9.6 | 0.00 | 0.00 | 0.00 | 47 | 1004.6 |
| 20260505191554 | 76 | 142 | 4.3 | 9.6 | 0.00 | 0.00 | 0.00 | 46 | 1004.6 |
| 20260505191040 | 76 | 215 | 4.3 | 7.0 | 0.00 | 0.00 | 0.00 | 45 | 1004.6 |
| 20260505190540 | 76 | 232 | 2.6 | 6.1 | 0.00 | 0.00 | 0.00 | 48 | 1004.8 |
| 20260505190053 | 75 | 182 | 2.6 | 6.1 | 0.00 | 0.00 | 0.00 | 48 | 1005.0 |
| 20260505185538 | 76 | 165 | 3.5 | 6.1 | 0.00 | 0.00 | 0.00 | 47 | 1005.1 |
| 20260505185036 | 75 | 172 | 3.5 | 7.8 | 0.00 | 0.00 | 0.00 | 49 | 1005.2 |
| 20260505184547 | 74 | 199 | 2.6 | 7.8 | 0.00 | 0.00 | 0.00 | 51 | 1005.2 |
| 20260505184037 | 74 | 249 | 4.3 | 7.8 | 0.00 | 0.00 | 0.00 | 50 | 1005.3 |
| 20260505183537 | 74 | 150 | 4.3 | 7.0 | 0.00 | 0.00 | 0.00 | 49 | 1005.4 |
| 20260505183046 | 74 | 208 | 3.5 | 6.1 | 0.00 | 0.00 | 0.00 | 49 | 1005.3 |
| 20260505182536 | 74 | 220 | 2.6 | 7.0 | 0.00 | 0.00 | 0.00 | 51 | 1005.5 |
| 20260505182036 | 73 | 179 | 2.6 | 7.0 | 0.00 | 0.00 | 0.00 | 50 | 1005.4 |
| 20260505181547 | 74 | 172 | 2.6 | 6.1 | 0.00 | 0.00 | 0.00 | 50 | 1005.5 |
| 20260505181035 | 73 | 193 | 3.5 | 7.0 | 0.00 | 0.00 | 0.00 | 51 | 1005.5 |
| 20260505180536 | 73 | 205 | 3.5 | 7.8 | 0.00 | 0.00 | 0.00 | 51 | 1005.5 |
| 20260505180047 | 74 | 200 | 3.5 | 7.8 | 0.00 | 0.00 | 0.00 | 50 | 1005.5 |
| 20260505175536 | 73 | 193 | 3.5 | 7.8 | 0.00 | 0.00 | 0.00 | 50 | 1005.6 |
| 20260505175036 | 74 | 205 | 3.5 | 7.0 | 0.00 | 0.00 | 0.00 | 49 | 1005.6 |
| 20260505174549 | 74 | 175 | 3.5 | 7.0 | 0.00 | 0.00 | 0.00 | 49 | 1005.5 |
| 20260505174036 | 75 | 153 | 3.5 | 7.0 | 0.00 | 0.00 | 0.00 | 48 | 1005.5 |
| 20260505173535 | 75 | 237 | 4.3 | 7.0 | 0.00 | 0.00 | 0.00 | 47 | 1005.7 |
| 20260505173054 | 76 | 165 | 2.6 | 6.1 | 0.00 | 0.00 | 0.00 | 47 | 1005.6 |
| 20260505172537 | 76 | 216 | 3.5 | 6.1 | 0.00 | 0.00 | 0.00 | 47 | 1005.7 |
| 20260505172037 | 76 | 233 | 3.5 | 7.0 | 0.00 | 0.00 | 0.00 | 47 | 1005.8 |
| 20260505171548 | 77 | 189 | 3.5 | 7.0 | 0.00 | 0.00 | 0.00 | 45 | 1005.9 |
| 20260505171036 | 77 | 171 | 3.5 | 7.0 | 0.00 | 0.00 | 0.00 | 45 | 1006.1 |
| 20260505170535 | 77 | 262 | 2.6 | 7.0 | 0.00 | 0.00 | 0.00 | 45 | 1006.1 |
| 20260505165538 | 77 | 214 | 4.3 | 7.0 | 0.00 | 0.00 | 0.00 | 45 | 1006.3 |
| 20260505165040 | 77 | 152 | 3.5 | 7.0 | 0.00 | 0.00 | 0.00 | 45 | 1006.4 |
| 20260505164554 | 78 | 205 | 3.5 | 5.2 | 0.00 | 0.00 | 0.00 | 43 | 1006.5 |
| 20260505164038 | 78 | 170 | 2.6 | 7.0 | 0.00 | 0.00 | 0.00 | 43 | 1006.5 |
| 20260505163538 | 77 | 150 | 2.6 | 7.0 | 0.00 | 0.00 | 0.00 | 45 | 1006.6 |
| 20260505163052 | 77 | 258 | 2.6 | 6.1 | 0.00 | 0.00 | 0.00 | 45 | 1006.8 |
| 20260505162535 | 76 | 214 | 1.7 | 4.3 | 0.00 | 0.00 | 0.00 | 46 | 1007.0 |
| 20260505162035 | 75 | 221 | 1.7 | 4.3 | 0.00 | 0.00 | 0.00 | 49 | 1007.1 |
| 20260505161547 | 74 | 180 | 1.7 | 4.3 | 0.00 | 0.00 | 0.00 | 51 | 1007.1 |
| 20260505161038 | 74 | 146 | 1.7 | 4.3 | 0.00 | 0.00 | 0.00 | 51 | 1007.2 |
| 20260505160537 | 74 | 183 | 2.6 | 4.3 | 0.00 | 0.00 | 0.00 | 49 | 1007.4 |
| 20260505153049 | 72 | 178 | 1.7 | 4.3 | 0.00 | 0.00 | 0.00 | 52 | 1007.8 |
| 20260505152538 | 71 | 211 | 0.9 | 5.2 | 0.00 | 0.00 | 0.00 | 53 | 1007.7 |
| 20260505152039 | 70 | 152 | 1.7 | 5.2 | 0.00 | 0.00 | 0.00 | 53 | 1007.9 |
| 20260505151600 | 70 | 202 | 1.7 | 3.5 | 0.00 | 0.00 | 0.00 | 54 | 1008.1 |
| 20260505151038 | 70 | 135 | 1.7 | 3.5 | 0.00 | 0.00 | 0.00 | 54 | 1008.1 |
| 20260505150542 | 69 | 160 | 1.7 | 4.3 | 0.00 | 0.00 | 0.00 | 55 | 1008.1 |
| 20260505140540 | 69 | 198 | 0.9 | 3.5 | 0.00 | 0.00 | 0.00 | 49 | 1007.3 |
| 20260505140104 | 70 | 277 | 1.7 | 3.5 | 0.00 | 0.00 | 0.00 | 48 | 1007.5 |
| 20260505125037 | 61 | 195 | 1.7 | 3.5 | 0.00 | 0.00 | 0.00 | 61 | 1008.1 |
| 20260505124551 | 61 | 234 | 1.7 | 3.5 | 0.00 | 0.00 | 0.00 | 62 | 1007.8 |
| 20260505124041 | 60 | 202 | 1.7 | 6.1 | 0.00 | 0.00 | 0.00 | 62 | 1007.7 |
| 20260505123541 | 60 | 226 | 1.7 | 6.1 | 0.00 | 0.00 | 0.00 | 62 | 1007.9 |
| 20260505123051 | 60 | 210 | 1.7 | 4.3 | 0.00 | 0.00 | 0.00 | 63 | 1007.9 |
| 20260505122544 | 59 | 213 | 1.7 | 4.3 | 0.00 | 0.00 | 0.00 | 63 | 1007.9 |
| 20260505122038 | 59 | 248 | 1.7 | 4.3 | 0.00 | 0.00 | 0.00 | 64 | 1007.8 |
| 20260505121611 | 59 | 235 | 0.9 | 3.5 | 0.00 | 0.00 | 0.00 | 65 | 1008.0 |
| 20260505121040 | 58 | 210 | 0.9 | 3.5 | 0.00 | 0.00 | 0.00 | 66 | 1007.9 |
| 20260505120539 | 57 | 257 | 1.7 | 3.5 | 0.00 | 0.00 | 0.00 | 67 | 1008.0 |
| 20260505120055 | 57 | 211 | 0.9 | 3.5 | 0.00 | 0.00 | 0.00 | 68 | 1008.2 |
| 20260505115546 | 57 | 238 | 0.9 | 3.5 | 0.00 | 0.00 | 0.00 | 69 | 1008.2 |
| 20260505115040 | 56 | 200 | 1.7 | 3.5 | 0.00 | 0.00 | 0.00 | 68 | 1008.5 |
| 20260505114552 | 56 | 194 | 1.7 | 3.5 | 0.00 | 0.00 | 0.00 | 70 | 1008.5 |
| 20260505114040 | 55 | 141 | 0.9 | 3.5 | 0.00 | 0.00 | 0.00 | 71 | 1008.3 |
| 20260505113539 | 54 | 224 | 0.9 | 2.6 | 0.00 | 0.00 | 0.00 | 72 | 1008.4 |
| 20260505113046 | 53 | 207 | 0.9 | 1.7 | 0.00 | 0.00 | 0.00 | 74 | 1008.5 |
| 20260505112539 | 53 | 153 | 0.9 | 1.7 | 0.00 | 0.00 | 0.00 | 75 | 1008.5 |
| 20260505112041 | 52 | 207 | 0.9 | 1.7 | 0.00 | 0.00 | 0.00 | 75 | 1008.7 |
| 20260505111547 | 52 | 139 | 0.0 | 0.9 | 0.00 | 0.00 | 0.00 | 76 | 1008.5 |
| 20260505111040 | 51 | 170 | 0.0 | 0.9 | 0.00 | 0.00 | 0.00 | 77 | 1008.5 |
| 20260505110543 | 51 | 155 | 0.0 | 0.9 | 0.00 | 0.00 | 0.00 | 77 | 1008.6 |
| 20260505102039 | 49 | 160 | 0.0 | 0.9 | 0.00 | 0.00 | 0.00 | 79 | 1008.5 |
| 20260505101555 | 49 | 169 | 0.0 | 0.9 | 0.00 | 0.00 | 0.00 | 78 | 1008.5 |
| 20260505101041 | 49 | 175 | 0.0 | 0.0 | 0.00 | 0.00 | 0.00 | 78 | 1008.4 |
| 20260505100540 | 49 | 0 | 0.0 | 0.0 | 0.00 | 0.00 | 0.00 | 77 | 1008.5 |
| 20260505100058 | 49 | 165 | 0.0 | 0.0 | 0.00 | 0.00 | 0.00 | 76 | 1008.4 |
| 20260505095541 | 50 | 0 | 0.0 | 0.0 | 0.00 | 0.00 | 0.00 | 76 | 1008.4 |
| 20260505095040 | 50 | 0 | 0.0 | 0.0 | 0.00 | 0.00 | 0.00 | 75 | 1008.5 |
| 20260505094555 | 50 | 165 | 0.0 | 0.0 | 0.00 | 0.00 | 0.00 | 75 | 1008.5 |
| 20260505094042 | 50 | 0 | 0.0 | 0.0 | 0.00 | 0.00 | 0.00 | 75 | 1008.4 |
| 20260505093542 | 50 | 165 | 0.0 | 0.9 | 0.00 | 0.00 | 0.00 | 74 | 1008.4 |
| 20260505093052 | 50 | 0 | 0.0 | 0.9 | 0.00 | 0.00 | 0.00 | 74 | 1008.4 |
| 20260505092540 | 50 | 165 | 0.0 | 0.9 | 0.00 | 0.00 | 0.00 | 73 | 1008.3 |
| 20260505092040 | 51 | 164 | 0.0 | 0.9 | 0.00 | 0.00 | 0.00 | 73 | 1008.4 |
| 20260505091550 | 51 | 172 | 0.0 | 0.9 | 0.00 | 0.00 | 0.00 | 72 | 1008.5 |
| 20260505091037 | 51 | 172 | 0.0 | 0.9 | 0.00 | 0.00 | 0.00 | 72 | 1008.4 |
| 20260505090540 | 51 | 158 | 0.0 | 0.9 | 0.00 | 0.00 | 0.00 | 71 | 1008.5 |
| 20260505090101 | 51 | 163 | 0.0 | 0.9 | 0.00 | 0.00 | 0.00 | 71 | 1008.4 |
| 20260505085537 | 51 | 163 | 0.0 | 0.9 | 0.00 | 0.00 | 0.00 | 71 | 1008.5 |
| 20260505085040 | 51 | 163 | 0.0 | 0.9 | 0.00 | 0.00 | 0.00 | 71 | 1008.6 |
| 20260505084551 | 51 | 172 | 0.0 | 0.9 | 0.00 | 0.00 | 0.00 | 72 | 1008.6 |
| 20260505084041 | 50 | 170 | 0.0 | 0.9 | 0.00 | 0.00 | 0.00 | 73 | 1008.6 |
| 20260505083540 | 50 | 172 | 0.0 | 0.9 | 0.00 | 0.00 | 0.00 | 74 | 1008.7 |
| 20260505083056 | 49 | 211 | 0.0 | 0.9 | 0.00 | 0.00 | 0.00 | 74 | 1008.7 |
| 20260505082540 | 49 | 211 | 0.0 | 0.9 | 0.00 | 0.00 | 0.00 | 74 | 1008.7 |
| 20260505082040 | 49 | 211 | 0.0 | 0.9 | 0.00 | 0.00 | 0.00 | 74 | 1008.8 |
| 20260505081551 | 50 | 0 | 0.0 | 0.0 | 0.00 | 0.00 | 0.00 | 72 | 1008.9 |
| 20260505081040 | 50 | 0 | 0.0 | 0.0 | 0.00 | 0.00 | 0.00 | 72 | 1008.8 |
| 20260505080539 | 50 | 0 | 0.0 | 0.0 | 0.00 | 0.00 | 0.00 | 71 | 1008.8 |
| 20260505080053 | 51 | 0 | 0.0 | 0.0 | 0.00 | 0.00 | 0.00 | 70 | 1008.8 |
| 20260505075542 | 51 | 0 | 0.0 | 0.0 | 0.00 | 0.00 | 0.00 | 69 | 1008.8 |
| 20260505075039 | 52 | 0 | 0.0 | 0.9 | 0.00 | 0.00 | 0.00 | 68 | 1008.8 |
| 20260505074549 | 53 | 0 | 0.0 | 0.9 | 0.00 | 0.00 | 0.00 | 67 | 1008.9 |
| 20260505074038 | 53 | 213 | 0.0 | 0.9 | 0.00 | 0.00 | 0.00 | 67 | 1008.9 |
| 20260505073538 | 53 | 229 | 0.0 | 0.9 | 0.00 | 0.00 | 0.00 | 67 | 1008.9 |
| 20260505073046 | 53 | 229 | 0.0 | 0.9 | 0.00 | 0.00 | 0.00 | 67 | 1008.9 |
| 20260505072542 | 53 | 0 | 0.0 | 0.9 | 0.00 | 0.00 | 0.00 | 67 | 1008.8 |
| 20260505072039 | 53 | 0 | 0.0 | 0.9 | 0.00 | 0.00 | 0.00 | 67 | 1008.7 |
| 20260505071553 | 53 | 247 | 0.0 | 0.9 | 0.00 | 0.00 | 0.00 | 66 | 1008.7 |
| 20260505071039 | 53 | 0 | 0.0 | 0.9 | 0.00 | 0.00 | 0.00 | 66 | 1008.6 |
| 20260505070539 | 53 | 247 | 0.0 | 0.9 | 0.00 | 0.00 | 0.00 | 66 | 1008.6 |
| 20260505070046 | 54 | 0 | 0.0 | 0.9 | 0.00 | 0.00 | 0.00 | 65 | 1008.6 |
| 20260505065541 | 54 | 247 | 0.0 | 0.9 | 0.00 | 0.00 | 0.00 | 65 | 1008.6 |
| 20260505065039 | 54 | 0 | 0.0 | 0.9 | 0.00 | 0.00 | 0.00 | 64 | 1008.6 |
| 20260505064544 | 54 | 0 | 0.0 | 0.9 | 0.00 | 0.00 | 0.00 | 64 | 1008.7 |
| 20260505064040 | 54 | 0 | 0.0 | 0.9 | 0.00 | 0.00 | 0.00 | 64 | 1008.7 |
| 20260505063538 | 54 | 0 | 0.0 | 0.9 | 0.00 | 0.00 | 0.00 | 63 | 1008.6 |
| 20260505063050 | 55 | 0 | 0.0 | 0.9 | 0.00 | 0.00 | 0.00 | 63 | 1008.7 |
| 20260505062538 | 55 | 247 | 0.0 | 0.9 | 0.00 | 0.00 | 0.00 | 62 | 1008.6 |
| 20260505062040 | 55 | 248 | 0.9 | 0.9 | 0.00 | 0.00 | 0.00 | 62 | 1008.5 |
| 20260505061554 | 55 | 238 | 0.0 | 0.9 | 0.00 | 0.00 | 0.00 | 62 | 1008.6 |
| 20260505061038 | 55 | 214 | 0.0 | 0.9 | 0.00 | 0.00 | 0.00 | 62 | 1008.6 |
| 20260505060538 | 55 | 0 | 0.0 | 0.9 | 0.00 | 0.00 | 0.00 | 62 | 1008.7 |
| 20260505060051 | 55 | 0 | 0.0 | 0.9 | 0.00 | 0.00 | 0.00 | 62 | 1008.5 |
| 20260505055540 | 56 | 0 | 0.0 | 0.9 | 0.00 | 0.00 | 0.00 | 61 | 1008.5 |
| 20260505055040 | 56 | 221 | 0.0 | 0.9 | 0.00 | 0.00 | 0.00 | 61 | 1008.6 |
| 20260505054552 | 56 | 232 | 0.0 | 0.9 | 0.00 | 0.00 | 0.00 | 61 | 1008.6 |
| 20260505054039 | 56 | 217 | 0.0 | 1.7 | 0.00 | 0.00 | 0.00 | 60 | 1008.5 |
| 20260505053538 | 56 | 217 | 0.0 | 1.7 | 0.00 | 0.00 | 0.00 | 60 | 1008.6 |
| 20260505053105 | 56 | 223 | 0.9 | 0.9 | 0.00 | 0.00 | 0.00 | 60 | 1008.5 |
| 20260505052538 | 56 | 234 | 0.0 | 0.9 | 0.00 | 0.00 | 0.00 | 60 | 1008.6 |
| 20260505052038 | 56 | 206 | 0.0 | 0.9 | 0.00 | 0.00 | 0.00 | 61 | 1008.5 |
| 20260505051550 | 56 | 0 | 0.0 | 0.9 | 0.00 | 0.00 | 0.00 | 60 | 1008.4 |
| 20260505051039 | 56 | 0 | 0.0 | 0.9 | 0.00 | 0.00 | 0.00 | 60 | 1008.5 |
| 20260505050537 | 56 | 228 | 0.0 | 0.9 | 0.00 | 0.00 | 0.00 | 59 | 1008.5 |
| 20260505041551 | 57 | 248 | 0.0 | 1.7 | 0.00 | 0.00 | 0.00 | 59 | 1008.1 |
| 20260505041041 | 57 | 227 | 0.0 | 1.7 | 0.00 | 0.00 | 0.00 | 59 | 1008.2 |
| 20260505040540 | 57 | 0 | 0.0 | 1.7 | 0.00 | 0.00 | 0.00 | 59 | 1008.1 |
| 20260505040046 | 57 | 226 | 0.9 | 1.7 | 0.00 | 0.00 | 0.00 | 59 | 1008.1 |
| 20260505035540 | 57 | 221 | 0.9 | 2.6 | 0.00 | 0.00 | 0.00 | 59 | 1008.0 |
| 20260505035043 | 57 | 225 | 0.9 | 2.6 | 0.00 | 0.00 | 0.00 | 59 | 1008.1 |
| 20260505034550 | 56 | 225 | 0.0 | 2.6 | 0.00 | 0.00 | 0.00 | 60 | 1007.9 |
| 20260505034040 | 56 | 213 | 0.9 | 1.7 | 0.00 | 0.00 | 0.00 | 61 | 1008.0 |